Weather in Semeno-Makarenskiy

Russia / Republic of Adygea     44°55′06″N   40°14′43″E
temp.,
°C
wind,
m/s
gust,
m/s
humid.,
%
clouds,
%
prec.,
mm/h
press.,
hPa
HPBL,
m
14 may, fri
fri1400:00+16ese512820 0.0 1010207
03:00+14se33820 0.0 101031
06:00+14ese22693 0.0 101125
09:00+22e45595 0.0 1010207
12:00+27ese57535 0.0 1010536
15:00+29e34510 0.0 1010854
18:00+28ne22696 0.0 101021
21:00+21e1184100 0.0 101111
15 may, sat
sat1500:00+17wsw469095 0.0 101189
03:00+14w47910 0.0 1013129
06:00+14sw35880 0.0 1014105
09:00+20w237023 0.0 1015386
12:00+24nw22625 0.0 1014614
15:00+26n23615 0.0 1013897
18:00+25ene237510 0.0 1013182
21:00+20ene33893 0.0 101236
16 may, sun
sun1600:00+18ene35945 0.0 101088
03:00+17se129543 0.0 101112
06:00+18ese239424 0.0 101098
09:00+23ene2379100 0.0 1009440
12:00+27ene456999 0.0 10081045
15:00+28ene5764100 0.0 10061439
18:00+26ene59767 0.1 1005346
21:00+21ene498749 0.1 1004168
17 may, mon
mon1700:00+18e46842 0.0 100397
03:00+16ene22878 0.0 100328
06:00+17wsw22915 0.0 100468
09:00+22wnw457282 0.0 1005405
12:00+25nw566797 0.0 10061003
15:00+25nw3461100 0.1 10081099
18:00+19n2390100 0.6 1008120
21:00+17se1288100 0.6 101017
18 may, tue
tue1800:00+15s2393100 0.0 101149
03:00+14w3896100 0.8 1013217
06:00+14ssw2496100 0.2 1014211
09:00+15w2393100 0.6 1015213
12:00+18w358584 2.2 1015542
15:00+21w557313 2.2 1014847
18:00+21wnw02757 0.0 1015662
21:00+16ssw22915 0.0 101521